 ,�O�C���x[��],����1,�O�C���x[��],����2,���ԉ��x[��],����3,���Ԏ��x[��],����4,�m��2(��󒲎�)���x[��],����5,����[��],����6
2003/7/1 0:00,20.2,0 ,78,0 ,24.5,0 ,66,0 ,24.8,0 ,21.8,0
2003/7/1 0:15,20.2,0 ,79,0 ,25.5,0 ,65,0 ,24.8,0 ,21.9,0
2003/7/1 0:30,19.9,0 ,80,0 ,24.5,0 ,65,0 ,24.8,0 ,22,0
2003/7/1 0:45,19.9,0 ,80,0 ,25.5,0 ,65,0 ,24.8,0 ,22,0
2003/7/1 1:00,19.9,0 ,79,0 ,24.4,0 ,65,0 ,24.7,0 ,22.1,0
2003/7/1 1:15,19.8,0 ,79,0 ,25.4,0 ,65,0 ,24.7,0 ,22.2,0
2003/7/1 1:30,19.7,0 ,79,0 ,24.4,0 ,64,0 ,24.7,0 ,22.2,0
2003/7/1 1:45,19.7,0 ,81,0 ,25.4,0 ,64,0 ,24.7,0 ,22.3,0
2003/7/1 2:00,19.4,0 ,83,0 ,24.4,0 ,64,0 ,24.6,0 ,22.3,0
2003/7/1 2:15,19.3,0 ,85,0 ,25.4,0 ,64,0 ,24.6,0 ,22.4,0
2003/7/1 2:30,19.2,0 ,86,0 ,24.4,0 ,63,0 ,24.6,0 ,22.4,0
2003/7/1 2:45,19.1,0 ,87,0 ,25.4,0 ,64,0 ,24.6,0 ,22.5,0
2003/7/1 3:00,19.1,0 ,87,0 ,24.4,0 ,63,0 ,24.6,0 ,22.5,0
2003/7/1 3:15,19.2,0 ,84,0 ,25.3,0 ,64,0 ,24.6,0 ,22.6,0
2003/7/1 3:30,19.4,0 ,80,0 ,24.3,0 ,63,0 ,24.6,0 ,22.6,0
2003/7/1 3:45,19.5,0 ,80,0 ,25.3,0 ,64,0 ,24.5,0 ,22.7,0
2003/7/1 4:00,19.6,0 ,80,0 ,24.3,0 ,63,0 ,24.5,0 ,22.7,0
2003/7/1 4:15,19.7,0 ,80,0 ,25.3,0 ,63,0 ,24.5,0 ,22.8,0
2003/7/1 4:30,19.7,0 ,79,0 ,24.3,0 ,63,0 ,24.5,0 ,22.8,0
2003/7/1 4:45,19.7,0 ,80,0 ,25.3,0 ,63,0 ,24.5,0 ,22.8,0
2003/7/1 5:00,19.8,0 ,80,0 ,24.2,0 ,63,0 ,24.5,0 ,22.9,0
2003/7/1 5:15,19.7,0 ,81,0 ,25.3,0 ,65,0 ,24.5,0 ,22.9,0
2003/7/1 5:30,19.6,0 ,81,0 ,24.3,0 ,64,0 ,24.5,0 ,23,0
2003/7/1 5:45,19.5,0 ,83,0 ,25.3,0 ,64,0 ,24.5,0 ,22.9,0
2003/7/1 6:00,19.4,0 ,84,0 ,24.3,0 ,64,0 ,24.5,0 ,22.9,0
2003/7/1 6:15,19.2,0 ,83,0 ,25.3,0 ,68,0 ,24.6,0 ,21.9,0
2003/7/1 6:30,19.2,0 ,82,0 ,24.3,0 ,68,0 ,24.7,0 ,22,0
2003/7/1 6:45,19.2,0 ,84,0 ,25.3,0 ,69,0 ,24.7,0 ,22,0
2003/7/1 7:00,19.1,0 ,85,0 ,24.3,0 ,68,0 ,24.7,0 ,22.1,0
2003/7/1 7:15,19,0 ,85,0 ,25.3,0 ,68,0 ,24.7,0 ,22.1,0
2003/7/1 7:30,19,0 ,84,0 ,24.3,0 ,68,0 ,24.7,0 ,22.2,0
2003/7/1 7:45,19.2,0 ,82,0 ,25.4,0 ,68,0 ,24.7,0 ,22.2,0
2003/7/1 8:00,19.5,0 ,79,0 ,24.3,0 ,68,0 ,24.6,0 ,22.3,0
2003/7/1 8:15,19.8,0 ,78,0 ,25.3,0 ,68,0 ,24.6,0 ,22.3,0
2003/7/1 8:30,20.1,0 ,76,0 ,24.3,0 ,68,0 ,24.6,0 ,22.4,0
2003/7/1 8:45,20,0 ,75,0 ,25.3,0 ,68,0 ,24.6,0 ,22.4,0
2003/7/1 9:00,20.3,0 ,73,0 ,24.3,0 ,67,0 ,24.6,0 ,22.5,0
2003/7/1 9:15,20.5,0 ,72,0 ,25.3,0 ,68,0 ,24.6,0 ,22.5,0
2003/7/1 9:30,20.8,0 ,70,0 ,24.3,0 ,67,0 ,24.5,0 ,22.6,0
2003/7/1 9:45,21.1,0 ,70,0 ,25.3,0 ,67,0 ,24.5,0 ,22.6,0
2003/7/1 10:00,21.3,0 ,69,0 ,24.3,0 ,66,0 ,24.5,0 ,22.6,0
2003/7/1 10:15,21.5,0 ,70,0 ,25.3,0 ,67,0 ,24.5,0 ,22.7,0
2003/7/1 10:30,21.7,0 ,70,0 ,24.3,0 ,66,0 ,24.5,0 ,22.7,0
2003/7/1 10:45,22,0 ,69,0 ,25.4,0 ,67,0 ,24.5,0 ,22.8,0
2003/7/1 11:00,22,0 ,67,0 ,24.4,0 ,66,0 ,24.5,0 ,22.8,0
2003/7/1 11:15,21.8,0 ,66,0 ,25.4,0 ,66,0 ,24.6,0 ,22.8,0
2003/7/1 11:30,21.9,0 ,65,0 ,24.4,0 ,66,0 ,24.6,0 ,22.9,0
2003/7/1 11:45,22,0 ,67,0 ,25.4,0 ,66,0 ,24.6,0 ,22.9,0
2003/7/1 12:00,21.9,0 ,68,0 ,24.5,0 ,65,0 ,24.6,0 ,23,0
2003/7/1 12:15,21.9,0 ,68,0 ,25.5,0 ,65,0 ,24.6,0 ,23,0
2003/7/1 12:30,22,0 ,67,0 ,24.4,0 ,65,0 ,24.6,0 ,23,0
2003/7/1 12:45,21.8,0 ,68,0 ,25.4,0 ,65,0 ,24.6,0 ,23.1,0
2003/7/1 13:00,21.9,0 ,69,0 ,24.4,0 ,64,0 ,24.6,0 ,23.1,0
2003/7/1 13:15,21.4,0 ,69,0 ,25.5,0 ,64,0 ,24.6,0 ,23.2,0
2003/7/1 13:30,21.5,0 ,69,0 ,24.4,0 ,64,0 ,24.6,0 ,23.2,0
2003/7/1 13:45,21.5,0 ,69,0 ,25.4,0 ,64,0 ,24.6,0 ,23.2,0
2003/7/1 14:00,21.5,0 ,68,0 ,24.4,0 ,63,0 ,24.6,0 ,23.2,0
2003/7/1 14:15,21.4,0 ,69,0 ,25.4,0 ,63,0 ,24.6,0 ,23.3,0
2003/7/1 14:30,21.2,0 ,69,0 ,24.5,0 ,63,0 ,24.6,0 ,23.3,0
2003/7/1 14:45,21.1,0 ,69,0 ,25.4,0 ,63,0 ,24.6,0 ,23.4,0
2003/7/1 15:00,20.9,0 ,69,0 ,24.4,0 ,62,0 ,24.6,0 ,23.4,0
2003/7/1 15:15,20.9,0 ,70,0 ,25.4,0 ,63,0 ,24.6,0 ,23.4,0
2003/7/1 15:30,20.8,0 ,70,0 ,24.4,0 ,62,0 ,24.5,0 ,23.4,0
2003/7/1 15:45,20.8,0 ,71,0 ,25.4,0 ,62,0 ,24.5,0 ,23.5,0
2003/7/1 16:00,20.8,0 ,71,0 ,24.4,0 ,62,0 ,24.5,0 ,23.5,0
2003/7/1 16:15,20.7,0 ,72,0 ,25.3,0 ,62,0 ,24.5,0 ,23.5,0
2003/7/1 16:30,20.6,0 ,72,0 ,24.3,0 ,61,0 ,24.5,0 ,23.6,0
2003/7/1 16:45,20.5,0 ,72,0 ,25.3,0 ,62,0 ,24.5,0 ,23.6,0
2003/7/1 17:00,20.4,0 ,71,0 ,24.3,0 ,61,0 ,24.4,0 ,23.6,0
2003/7/1 17:15,20.3,0 ,72,0 ,25.3,0 ,62,0 ,24.4,0 ,23.6,0
2003/7/1 17:30,20.2,0 ,73,0 ,24.3,0 ,62,0 ,24.4,0 ,23.7,0
2003/7/1 17:45,19.9,0 ,74,0 ,25.3,0 ,62,0 ,24.4,0 ,23.7,0
2003/7/1 18:00,19.9,0 ,74,0 ,24.2,0 ,61,0 ,24.4,0 ,23.7,0
2003/7/1 18:15,19.8,0 ,76,0 ,25.3,0 ,61,0 ,24.3,0 ,23.8,0
2003/7/1 18:30,19.7,0 ,77,0 ,24.2,0 ,61,0 ,24.3,0 ,22.8,0
2003/7/1 18:45,19.6,0 ,77,0 ,25.2,0 ,61,0 ,24.3,0 ,22.9,0
2003/7/1 19:00,19.5,0 ,76,0 ,24.2,0 ,61,0 ,24.3,0 ,22.9,0
2003/7/1 19:15,19.5,0 ,77,0 ,25.2,0 ,61,0 ,24.3,0 ,22.9,0
2003/7/1 19:30,19.3,0 ,77,0 ,24.1,0 ,61,0 ,24.3,0 ,23,0
2003/7/1 19:45,19.3,0 ,78,0 ,25.2,0 ,61,0 ,24.2,0 ,23,0
2003/7/1 20:00,19.2,0 ,79,0 ,24.1,0 ,61,0 ,24.2,0 ,23,0
2003/7/1 20:15,19.1,0 ,80,0 ,25.1,0 ,61,0 ,24.2,0 ,23.1,0
2003/7/1 20:30,19,0 ,80,0 ,24.1,0 ,61,0 ,24.2,0 ,23.1,0
2003/7/1 20:45,19,0 ,82,0 ,25.1,0 ,61,0 ,24.2,0 ,23.1,0
2003/7/1 21:00,18.8,0 ,83,0 ,24.1,0 ,60,0 ,24.2,0 ,23.2,0
2003/7/1 21:15,18.7,0 ,84,0 ,25.1,0 ,61,0 ,24.2,0 ,23.2,0
2003/7/1 21:30,18.7,0 ,84,0 ,24.1,0 ,61,0 ,24.2,0 ,23.2,0
2003/7/1 21:45,18.6,0 ,85,0 ,25.2,0 ,65,0 ,24.2,0 ,23.3,0
2003/7/1 22:00,18.5,0 ,86,0 ,24.2,0 ,66,0 ,24.6,0 ,23.3,0
2003/7/1 22:15,18.5,0 ,86,0 ,25.3,0 ,69,0 ,24.6,0 ,22.5,0
2003/7/1 22:30,18.3,0 ,86,0 ,24.3,0 ,67,0 ,24.7,0 ,22.5,0
2003/7/1 22:45,18.2,0 ,86,0 ,25.3,0 ,68,0 ,24.7,0 ,22.5,0
2003/7/1 23:00,18.2,0 ,86,0 ,24.3,0 ,67,0 ,24.7,0 ,22.6,0
2003/7/1 23:15,18.2,0 ,86,0 ,25.3,0 ,69,0 ,24.8,0 ,22.2,0
2003/7/1 23:30,18.1,0 ,86,0 ,24.2,0 ,68,0 ,24.7,0 ,22.2,0
2003/7/1 23:45,17.9,0 ,87,0 ,25.3,0 ,67,0 ,24.7,0 ,22.2,0
2003/7/2 0:00,17.9,0 ,88,0 ,24.2,0 ,66,0 ,24.7,0 ,22.3,0
2003/7/2 0:15,17.8,0 ,89,0 ,25.2,0 ,66,0 ,24.6,0 ,22.3,0
2003/7/2 0:30,17.8,0 ,90,0 ,24.2,0 ,65,0 ,24.6,0 ,22.4,0
2003/7/2 0:45,17.6,0 ,89,0 ,25.2,0 ,65,0 ,24.5,0 ,22.4,0
2003/7/2 1:00,17.7,0 ,88,0 ,24.1,0 ,65,0 ,24.5,0 ,22.5,0
2003/7/2 1:15,17.8,0 ,89,0 ,25.1,0 ,65,0 ,24.5,0 ,22.5,0
2003/7/2 1:30,17.7,0 ,89,0 ,24.1,0 ,64,0 ,24.4,0 ,22.5,0
2003/7/2 1:45,17.7,0 ,89,0 ,25.1,0 ,64,0 ,24.4,0 ,22.6,0
2003/7/2 2:00,17.7,0 ,88,0 ,24.1,0 ,64,0 ,24.4,0 ,22.6,0
2003/7/2 2:15,17.7,0 ,89,0 ,25.1,0 ,64,0 ,24.4,0 ,22.7,0
2003/7/2 2:30,17.8,0 ,89,0 ,24,0 ,63,0 ,24.4,0 ,22.7,0
2003/7/2 2:45,17.7,0 ,89,0 ,25.1,0 ,64,0 ,24.3,0 ,22.7,0
2003/7/2 3:00,17.7,0 ,89,0 ,24.1,0 ,63,0 ,24.3,0 ,22.8,0
2003/7/2 3:15,17.7,0 ,89,0 ,25,0 ,63,0 ,24.3,0 ,22.8,0
2003/7/2 3:30,17.7,0 ,88,0 ,24,0 ,63,0 ,24.3,0 ,22.9,0
2003/7/2 3:45,17.8,0 ,89,0 ,25,0 ,63,0 ,24.3,0 ,22.9,0
2003/7/2 4:00,17.8,0 ,90,0 ,23.9,0 ,63,0 ,24.3,0 ,22.9,0
2003/7/2 4:15,17.7,0 ,92,0 ,25,0 ,63,0 ,24.3,0 ,23,0
2003/7/2 4:30,17.7,0 ,93,0 ,24,0 ,63,0 ,24.2,0 ,23,0
2003/7/2 4:45,17.6,0 ,94,0 ,25,0 ,63,0 ,24.2,0 ,23,0
2003/7/2 5:00,17.6,0 ,94,0 ,23.9,0 ,63,0 ,24.2,0 ,23.1,0
2003/7/2 5:15,17.6,0 ,93,0 ,25,0 ,63,0 ,24.2,0 ,23.1,0
2003/7/2 5:30,17.6,0 ,91,0 ,23.9,0 ,62,0 ,24.2,0 ,23.1,0
2003/7/2 5:45,17.6,0 ,90,0 ,25,0 ,63,0 ,24.2,0 ,23,0
2003/7/2 6:00,17.5,0 ,89,0 ,23.9,0 ,63,0 ,24.2,0 ,23.1,0
2003/7/2 6:15,17.5,0 ,89,0 ,25,0 ,65,0 ,24.3,0 ,23.1,0
2003/7/2 6:30,17.6,0 ,88,0 ,23.8,0 ,61,0 ,24.3,0 ,23.2,0
2003/7/2 6:45,17.7,0 ,88,0 ,24.8,0 ,61,0 ,24.3,0 ,22.6,0
2003/7/2 7:00,17.7,0 ,88,0 ,23.8,0 ,61,0 ,24.2,0 ,22.6,0
2003/7/2 7:15,17.8,0 ,87,0 ,24.9,0 ,64,0 ,24.2,0 ,22.7,0
2003/7/2 7:30,17.8,0 ,86,0 ,23.9,0 ,65,0 ,24.2,0 ,22.7,0
2003/7/2 7:45,17.9,0 ,85,0 ,24.9,0 ,67,0 ,24.2,0 ,21.9,0
2003/7/2 8:00,18,0 ,84,0 ,23.9,0 ,66,0 ,24.2,0 ,21.9,0
2003/7/2 8:15,18.2,0 ,83,0 ,24.9,0 ,67,0 ,24.2,0 ,22,0
2003/7/2 8:30,18.4,0 ,81,0 ,23.8,0 ,67,0 ,24.2,0 ,22,0
2003/7/2 8:45,18.7,0 ,81,0 ,24.9,0 ,67,0 ,24.2,0 ,22.1,0
2003/7/2 9:00,18.7,0 ,80,0 ,23.8,0 ,67,0 ,24.2,0 ,22.1,0
2003/7/2 9:15,18.8,0 ,79,0 ,24.9,0 ,66,0 ,24.2,0 ,22.1,0
2003/7/2 9:30,19.1,0 ,77,0 ,23.9,0 ,66,0 ,24.2,0 ,22.2,0
2003/7/2 9:45,19.1,0 ,80,0 ,24.9,0 ,66,0 ,24.2,0 ,22.2,0
2003/7/2 10:00,19.1,0 ,82,0 ,23.8,0 ,66,0 ,24.2,0 ,22.3,0
2003/7/2 10:15,19.2,0 ,79,0 ,24.9,0 ,66,0 ,24.1,0 ,22.3,0
2003/7/2 10:30,19.4,0 ,76,0 ,23.8,0 ,66,0 ,24.2,0 ,22.4,0
2003/7/2 10:45,19.8,0 ,74,0 ,24.9,0 ,67,0 ,24.2,0 ,22.4,0
2003/7/2 11:00,19.9,0 ,71,0 ,23.9,0 ,67,0 ,24.2,0 ,22.4,0
2003/7/2 11:15,20.7,0 ,70,0 ,24.9,0 ,67,0 ,24.2,0 ,22.5,0
2003/7/2 11:30,21.3,0 ,68,0 ,23.9,0 ,67,0 ,24.2,0 ,22.5,0
2003/7/2 11:45,21.1,0 ,67,0 ,25,0 ,67,0 ,24.2,0 ,22.5,0
2003/7/2 12:00,21.3,0 ,65,0 ,23.9,0 ,66,0 ,24.2,0 ,22.6,0
2003/7/2 12:15,21.5,0 ,65,0 ,25,0 ,66,0 ,24.2,0 ,22.6,0
2003/7/2 12:30,21.6,0 ,65,0 ,23.9,0 ,66,0 ,24.2,0 ,22.7,0
2003/7/2 12:45,21.6,0 ,66,0 ,25,0 ,66,0 ,24.3,0 ,22.7,0
2003/7/2 13:00,21.5,0 ,66,0 ,24,0 ,66,0 ,24.3,0 ,22.7,0
2003/7/2 13:15,21.4,0 ,68,0 ,25,0 ,65,0 ,24.3,0 ,22.8,0
2003/7/2 13:30,21.2,0 ,70,0 ,24,0 ,65,0 ,24.3,0 ,22.8,0
2003/7/2 13:45,21.2,0 ,69,0 ,25,0 ,65,0 ,24.3,0 ,22.9,0
2003/7/2 14:00,21.3,0 ,67,0 ,24.1,0 ,64,0 ,24.3,0 ,22.9,0
2003/7/2 14:15,21.4,0 ,68,0 ,25.1,0 ,65,0 ,24.3,0 ,22.9,0
2003/7/2 14:30,21.5,0 ,68,0 ,24,0 ,64,0 ,24.3,0 ,23,0
2003/7/2 14:45,21.7,0 ,68,0 ,25,0 ,65,0 ,24.3,0 ,23,0
2003/7/2 15:00,21.8,0 ,68,0 ,24,0 ,64,0 ,24.3,0 ,23,0
2003/7/2 15:15,21.9,0 ,68,0 ,25.1,0 ,64,0 ,24.3,0 ,23.1,0
2003/7/2 15:30,22,0 ,67,0 ,24,0 ,64,0 ,24.3,0 ,23.1,0
2003/7/2 15:45,21.9,0 ,67,0 ,25,0 ,64,0 ,24.3,0 ,23.1,0
2003/7/2 16:00,22.1,0 ,67,0 ,24,0 ,64,0 ,24.4,0 ,23.2,0
2003/7/2 16:15,21.8,0 ,68,0 ,25,0 ,64,0 ,24.4,0 ,23.2,0
2003/7/2 16:30,21.5,0 ,69,0 ,24,0 ,63,0 ,24.4,0 ,23.2,0
2003/7/2 16:45,21.3,0 ,68,0 ,25.1,0 ,64,0 ,24.4,0 ,23.3,0
2003/7/2 17:00,21.4,0 ,66,0 ,24.1,0 ,63,0 ,24.6,0 ,23.3,0
2003/7/2 17:15,21.4,0 ,67,0 ,25.1,0 ,63,0 ,24.7,0 ,23.3,0
2003/7/2 17:30,21.3,0 ,67,0 ,24,0 ,62,0 ,24.7,0 ,23.4,0
2003/7/2 17:45,21.2,0 ,67,0 ,25.1,0 ,63,0 ,24.7,0 ,23.4,0
2003/7/2 18:00,21.1,0 ,67,0 ,24,0 ,62,0 ,24.7,0 ,23.4,0
2003/7/2 18:15,21.1,0 ,69,0 ,25,0 ,63,0 ,24.7,0 ,23.4,0
2003/7/2 18:30,21,0 ,70,0 ,24.1,0 ,62,0 ,24.6,0 ,23.5,0
2003/7/2 18:45,21,0 ,73,0 ,25.1,0 ,62,0 ,24.7,0 ,23.5,0
2003/7/2 19:00,20.5,0 ,76,0 ,24,0 ,63,0 ,24.8,0 ,23.5,0
2003/7/2 19:15,20,0 ,77,0 ,25.1,0 ,65,0 ,24.8,0 ,23.6,0
2003/7/2 19:30,19.6,0 ,78,0 ,24.1,0 ,64,0 ,24.7,0 ,23.6,0
2003/7/2 19:45,19.3,0 ,78,0 ,25.1,0 ,65,0 ,24.7,0 ,23.6,0
2003/7/2 20:00,19.2,0 ,78,0 ,24.1,0 ,64,0 ,24.6,0 ,23.6,0
2003/7/2 20:15,19,0 ,80,0 ,25.2,0 ,65,0 ,24.7,0 ,23.7,0
2003/7/2 20:30,18.6,0 ,81,0 ,24.2,0 ,65,0 ,24.7,0 ,23.7,0
2003/7/2 20:45,18.4,0 ,82,0 ,25.2,0 ,65,0 ,24.7,0 ,22.7,0
2003/7/2 21:00,18.4,0 ,82,0 ,24.2,0 ,65,0 ,24.7,0 ,22.7,0
2003/7/2 21:15,18.2,0 ,82,0 ,25.3,0 ,67,0 ,24.7,0 ,22.7,0
2003/7/2 21:30,17.9,0 ,82,0 ,24.2,0 ,67,0 ,24.7,0 ,22.8,0
2003/7/2 21:45,17.7,0 ,83,0 ,25.3,0 ,68,0 ,24.7,0 ,22.8,0
2003/7/2 22:00,17.4,0 ,84,0 ,24.2,0 ,67,0 ,24.7,0 ,22.9,0
2003/7/2 22:15,17.4,0 ,84,0 ,25.3,0 ,67,0 ,24.7,0 ,22.9,0
2003/7/2 22:30,17.5,0 ,84,0 ,24.2,0 ,66,0 ,24.7,0 ,22.9,0
2003/7/2 22:45,17.4,0 ,85,0 ,25.3,0 ,66,0 ,24.7,0 ,23,0
2003/7/2 23:00,17.3,0 ,85,0 ,24.2,0 ,66,0 ,24.7,0 ,23,0
2003/7/2 23:15,17.2,0 ,86,0 ,25.3,0 ,66,0 ,24.7,0 ,23.1,0
2003/7/2 23:30,17,0 ,87,0 ,24.2,0 ,66,0 ,24.6,0 ,23.1,0
2003/7/2 23:45,16.9,0 ,88,0 ,25.3,0 ,66,0 ,24.6,0 ,23.1,0
2003/7/3 0:00,16.9,0 ,88,0 ,24.2,0 ,65,0 ,24.6,0 ,23.2,0
2003/7/3 0:15,16.7,0 ,88,0 ,25.3,0 ,65,0 ,24.6,0 ,23.2,0
2003/7/3 0:30,16.7,0 ,87,0 ,24.2,0 ,65,0 ,24.6,0 ,23.2,0
2003/7/3 0:45,16.8,0 ,86,0 ,25.2,0 ,65,0 ,24.6,0 ,23.3,0
2003/7/3 1:00,17,0 ,85,0 ,24.2,0 ,65,0 ,24.6,0 ,23.3,0
2003/7/3 1:15,17,0 ,86,0 ,25.2,0 ,66,0 ,24.8,0 ,23.3,0
2003/7/3 1:30,17,0 ,86,0 ,24.3,0 ,68,0 ,24.7,0 ,23.4,0
2003/7/3 1:45,17.1,0 ,86,0 ,25.3,0 ,68,0 ,24.7,0 ,23.4,0
2003/7/3 2:00,16.9,0 ,86,0 ,24.2,0 ,67,0 ,24.6,0 ,23.4,0
2003/7/3 2:15,17.1,0 ,86,0 ,25.2,0 ,66,0 ,24.6,0 ,23.4,0
2003/7/3 2:30,17.1,0 ,85,0 ,24.1,0 ,65,0 ,24.5,0 ,23.4,0
2003/7/3 2:45,17,0 ,86,0 ,25.1,0 ,65,0 ,24.5,0 ,23.4,0
2003/7/3 3:00,16.9,0 ,86,0 ,24.1,0 ,64,0 ,24.4,0 ,23.5,0
2003/7/3 3:15,16.8,0 ,86,0 ,25,0 ,64,0 ,24.4,0 ,23.5,0
2003/7/3 3:30,16.8,0 ,86,0 ,24,0 ,63,0 ,24.4,0 ,23.5,0
2003/7/3 3:45,16.8,0 ,86,0 ,25,0 ,63,0 ,24.4,0 ,23.6,0
2003/7/3 4:00,16.9,0 ,86,0 ,24,0 ,62,0 ,24.3,0 ,23.6,0
2003/7/3 4:15,16.9,0 ,86,0 ,25,0 ,62,0 ,24.3,0 ,23.6,0
2003/7/3 4:30,17,0 ,85,0 ,23.9,0 ,62,0 ,24.3,0 ,23.6,0
2003/7/3 4:45,17.1,0 ,85,0 ,25,0 ,62,0 ,24.3,0 ,23.6,0
2003/7/3 5:00,17.1,0 ,85,0 ,23.9,0 ,62,0 ,24.2,0 ,23.7,0
2003/7/3 5:15,17,0 ,86,0 ,24.9,0 ,62,0 ,24.2,0 ,23.7,0
2003/7/3 5:30,17,0 ,86,0 ,23.8,0 ,62,0 ,24.2,0 ,23.7,0
2003/7/3 5:45,17,0 ,87,0 ,24.9,0 ,61,0 ,24.2,0 ,23.3,0
2003/7/3 6:00,17,0 ,87,0 ,23.9,0 ,62,0 ,24.2,0 ,23.4,0
2003/7/3 6:15,17,0 ,89,0 ,25,0 ,66,0 ,24.3,0 ,22.3,0
2003/7/3 6:30,16.9,0 ,91,0 ,24,0 ,65,0 ,24.3,0 ,22.3,0
2003/7/3 6:45,16.8,0 ,90,0 ,25,0 ,67,0 ,24.3,0 ,22.3,0
2003/7/3 7:00,16.8,0 ,88,0 ,23.9,0 ,66,0 ,24.3,0 ,22.4,0
2003/7/3 7:15,16.9,0 ,87,0 ,24.9,0 ,65,0 ,24.3,0 ,22.4,0
2003/7/3 7:30,17.1,0 ,86,0 ,23.9,0 ,65,0 ,24.2,0 ,22.4,0
2003/7/3 7:45,17.1,0 ,85,0 ,24.9,0 ,65,0 ,24.2,0 ,22.1,0
2003/7/3 8:00,17.2,0 ,84,0 ,23.8,0 ,65,0 ,24.2,0 ,22.1,0
2003/7/3 8:15,17.4,0 ,84,0 ,24.8,0 ,65,0 ,24.2,0 ,22.1,0
2003/7/3 8:30,17.6,0 ,83,0 ,23.8,0 ,64,0 ,24.1,0 ,22.2,0
2003/7/3 8:45,17.7,0 ,82,0 ,24.8,0 ,64,0 ,24.1,0 ,22.2,0
2003/7/3 9:00,17.8,0 ,80,0 ,23.8,0 ,64,0 ,24.1,0 ,22.3,0
2003/7/3 9:15,17.9,0 ,79,0 ,24.8,0 ,64,0 ,24.1,0 ,22.3,0
2003/7/3 9:30,18.1,0 ,78,0 ,23.8,0 ,64,0 ,24.1,0 ,22.4,0
2003/7/3 9:45,18.2,0 ,78,0 ,24.8,0 ,63,0 ,24,0 ,22.4,0
2003/7/3 10:00,18.2,0 ,78,0 ,23.8,0 ,63,0 ,24,0 ,22.4,0
2003/7/3 10:15,18.4,0 ,78,0 ,24.8,0 ,63,0 ,24,0 ,22.5,0
2003/7/3 10:30,18.5,0 ,78,0 ,23.8,0 ,63,0 ,24,0 ,22.5,0
2003/7/3 10:45,18.6,0 ,78,0 ,24.7,0 ,63,0 ,24,0 ,22.5,0
2003/7/3 11:00,18.8,0 ,77,0 ,23.7,0 ,63,0 ,24,0 ,22.6,0
2003/7/3 11:15,19,0 ,76,0 ,24.7,0 ,63,0 ,24,0 ,22.6,0
2003/7/3 11:30,19.2,0 ,75,0 ,23.8,0 ,63,0 ,23.9,0 ,22.7,0
2003/7/3 11:45,19.4,0 ,74,0 ,24.7,0 ,63,0 ,23.9,0 ,22.7,0
2003/7/3 12:00,19.6,0 ,73,0 ,23.8,0 ,62,0 ,23.9,0 ,22.7,0
2003/7/3 12:15,19.8,0 ,72,0 ,24.7,0 ,63,0 ,23.9,0 ,22.8,0
2003/7/3 12:30,20.2,0 ,71,0 ,23.7,0 ,62,0 ,23.9,0 ,22.8,0
2003/7/3 12:45,20.4,0 ,70,0 ,24.7,0 ,62,0 ,23.9,0 ,22.8,0
2003/7/3 13:00,20.7,0 ,69,0 ,23.8,0 ,62,0 ,23.9,0 ,22.9,0
2003/7/3 13:15,21,0 ,67,0 ,24.7,0 ,62,0 ,23.9,0 ,22.9,0
2003/7/3 13:30,21.5,0 ,64,0 ,23.8,0 ,62,0 ,24,0 ,22.9,0
2003/7/3 13:45,22,0 ,64,0 ,24.8,0 ,62,0 ,24,0 ,23,0
2003/7/3 14:00,22.1,0 ,63,0 ,23.8,0 ,62,0 ,24,0 ,23,0
2003/7/3 14:15,22.3,0 ,63,0 ,24.8,0 ,62,0 ,24,0 ,23,0
2003/7/3 14:30,22.4,0 ,63,0 ,23.8,0 ,62,0 ,24,0 ,23,0
2003/7/3 14:45,22.6,0 ,63,0 ,24.8,0 ,62,0 ,24,0 ,23.1,0
2003/7/3 15:00,22.7,0 ,63,0 ,23.8,0 ,61,0 ,24,0 ,23.1,0
2003/7/3 15:15,22.6,0 ,67,0 ,24.8,0 ,62,0 ,24,0 ,23.2,0
2003/7/3 15:30,22.5,0 ,70,0 ,23.8,0 ,61,0 ,24,0 ,23.2,0
2003/7/3 15:45,21.9,0 ,72,0 ,24.8,0 ,62,0 ,24,0 ,23.2,0
2003/7/3 16:00,21.4,0 ,74,0 ,23.8,0 ,62,0 ,24,0 ,23.2,0
2003/7/3 16:15,20.8,0 ,77,0 ,24.8,0 ,62,0 ,24,0 ,23.2,0
2003/7/3 16:30,20.2,0 ,79,0 ,23.8,0 ,62,0 ,24,0 ,23.3,0
2003/7/3 16:45,19.8,0 ,79,0 ,24.8,0 ,62,0 ,24,0 ,23.3,0
2003/7/3 17:00,19.6,0 ,79,0 ,23.8,0 ,62,0 ,24,0 ,23.3,0
2003/7/3 17:15,19.5,0 ,81,0 ,24.8,0 ,62,0 ,24,0 ,23.4,0
2003/7/3 17:30,19.3,0 ,82,0 ,23.8,0 ,62,0 ,23.9,0 ,23.4,0
2003/7/3 17:45,19.3,0 ,83,0 ,24.8,0 ,62,0 ,23.9,0 ,23.4,0
2003/7/3 18:00,19.1,0 ,84,0 ,23.7,0 ,62,0 ,23.9,0 ,23.4,0
2003/7/3 18:15,19,0 ,85,0 ,24.7,0 ,62,0 ,23.9,0 ,23.5,0
2003/7/3 18:30,18.8,0 ,85,0 ,23.7,0 ,61,0 ,23.9,0 ,23.5,0
2003/7/3 18:45,18.7,0 ,86,0 ,24.7,0 ,62,0 ,23.9,0 ,23.5,0
2003/7/3 19:00,18.6,0 ,87,0 ,23.7,0 ,62,0 ,23.9,0 ,23.5,0
2003/7/3 19:15,18.4,0 ,88,0 ,24.7,0 ,63,0 ,24,0 ,23.6,0
2003/7/3 19:30,18.3,0 ,89,0 ,23.7,0 ,63,0 ,24.1,0 ,23.6,0
2003/7/3 19:45,18.1,0 ,89,0 ,24.8,0 ,64,0 ,24.1,0 ,23.6,0
2003/7/3 20:00,18.1,0 ,89,0 ,23.7,0 ,63,0 ,24.1,0 ,23.6,0
2003/7/3 20:15,18,0 ,89,0 ,24.8,0 ,64,0 ,24.1,0 ,23.6,0
2003/7/3 20:30,18,0 ,88,0 ,23.8,0 ,63,0 ,24.1,0 ,23.6,0
2003/7/3 20:45,17.9,0 ,88,0 ,24.9,0 ,65,0 ,24.1,0 ,23.7,0
2003/7/3 21:00,17.9,0 ,88,0 ,23.8,0 ,65,0 ,24.2,0 ,22.8,0
2003/7/3 21:15,17.9,0 ,89,0 ,24.9,0 ,66,0 ,24.3,0 ,22.8,0
2003/7/3 21:30,17.9,0 ,89,0 ,23.9,0 ,66,0 ,24.4,0 ,22.2,0
2003/7/3 21:45,17.8,0 ,90,0 ,25,0 ,68,0 ,24.5,0 ,22.2,0
2003/7/3 22:00,17.7,0 ,91,0 ,24,0 ,68,0 ,24.6,0 ,22.2,0
2003/7/3 22:15,17.6,0 ,95,0 ,25,0 ,69,0 ,24.5,0 ,22.2,0
2003/7/3 22:30,17.4,0 ,99,0 ,23.9,0 ,68,0 ,24.5,0 ,22.2,0
2003/7/3 22:45,17.3,0 ,99,0 ,24.9,0 ,69,0 ,24.4,0 ,22.2,0
2003/7/3 23:00,17.2,0 ,99,0 ,23.9,0 ,68,0 ,24.4,0 ,22.2,0
2003/7/3 23:15,17.2,0 ,99,0 ,24.9,0 ,67,0 ,24.4,0 ,22.2,0
2003/7/3 23:30,17.2,0 ,99,0 ,23.8,0 ,67,0 ,24.3,0 ,22.3,0
2003/7/3 23:45,17.2,0 ,99,0 ,24.8,0 ,66,0 ,24.3,0 ,22.3,0
2003/7/4 0:00,17.2,0 ,99,0 ,23.8,0 ,65,0 ,24.2,0 ,22.4,0
2003/7/4 0:15,17.1,0 ,99,0 ,24.8,0 ,65,0 ,24.2,0 ,22.4,0
2003/7/4 0:30,17.1,0 ,99,0 ,23.8,0 ,65,0 ,24.2,0 ,22.4,0
2003/7/4 0:45,17.1,0 ,99,0 ,24.7,0 ,65,0 ,24.2,0 ,22.5,0
2003/7/4 1:00,17.1,0 ,99,0 ,23.8,0 ,64,0 ,24.1,0 ,22.5,0
2003/7/4 1:15,17.1,0 ,99,0 ,24.7,0 ,64,0 ,24.1,0 ,22.6,0
2003/7/4 1:30,17.2,0 ,99,0 ,23.7,0 ,64,0 ,24.1,0 ,22.6,0
2003/7/4 1:45,17.3,0 ,99,0 ,24.7,0 ,64,0 ,24.1,0 ,22.6,0
2003/7/4 2:00,17.2,0 ,99,0 ,23.7,0 ,64,0 ,24.1,0 ,22.7,0
2003/7/4 2:15,17.2,0 ,99,0 ,24.7,0 ,64,0 ,24,0 ,22.7,0
2003/7/4 2:30,17.3,0 ,99,0 ,23.7,0 ,64,0 ,24,0 ,22.7,0
2003/7/4 2:45,17.3,0 ,99,0 ,24.7,0 ,64,0 ,24,0 ,22.8,0
2003/7/4 3:00,17.3,0 ,99,0 ,23.6,0 ,63,0 ,24,0 ,22.8,0
2003/7/4 3:15,17.2,0 ,99,0 ,24.7,0 ,64,0 ,24,0 ,22.8,0
2003/7/4 3:30,17.2,0 ,99,0 ,23.6,0 ,63,0 ,24,0 ,22.9,0
2003/7/4 3:45,17.1,0 ,99,0 ,24.6,0 ,64,0 ,23.9,0 ,22.9,0
2003/7/4 4:00,17.1,0 ,99,0 ,23.6,0 ,63,0 ,23.9,0 ,22.9,0
2003/7/4 4:15,17.1,0 ,99,0 ,24.6,0 ,63,0 ,23.9,0 ,23,0
2003/7/4 4:30,17.2,0 ,99,0 ,23.5,0 ,63,0 ,23.9,0 ,23,0
2003/7/4 4:45,17.3,0 ,99,0 ,24.6,0 ,63,0 ,23.9,0 ,23,0
2003/7/4 5:00,17.4,0 ,99,0 ,23.6,0 ,63,0 ,23.9,0 ,23,0
2003/7/4 5:15,17.5,0 ,99,0 ,24.6,0 ,64,0 ,23.9,0 ,23.1,0
2003/7/4 5:30,17.6,0 ,99,0 ,23.5,0 ,64,0 ,23.9,0 ,23.1,0
2003/7/4 5:45,17.7,0 ,99,0 ,24.6,0 ,65,0 ,23.9,0 ,22.5,0
2003/7/4 6:00,17.8,0 ,99,0 ,23.5,0 ,65,0 ,23.9,0 ,22.6,0
2003/7/4 6:15,18.1,0 ,97,0 ,24.7,0 ,69,0 ,24,0 ,22.6,0
2003/7/4 6:30,18.1,0 ,94,0 ,23.6,0 ,68,0 ,24,0 ,22.6,0
2003/7/4 6:45,18.3,0 ,94,0 ,24.7,0 ,70,0 ,24,0 ,22.7,0
2003/7/4 7:00,18.4,0 ,93,0 ,23.6,0 ,69,0 ,24,0 ,22.7,0
2003/7/4 7:15,18.5,0 ,93,0 ,24.6,0 ,70,0 ,24,0 ,22.5,0
2003/7/4 7:30,18.7,0 ,93,0 ,23.6,0 ,70,0 ,24,0 ,22.5,0
2003/7/4 7:45,18.7,0 ,95,0 ,24.6,0 ,72,0 ,24,0 ,22.5,0
2003/7/4 8:00,18.7,0 ,97,0 ,23.6,0 ,71,0 ,24,0 ,22.6,0
2003/7/4 8:15,18.5,0 ,98,0 ,24.6,0 ,72,0 ,24,0 ,22.6,0
2003/7/4 8:30,18.5,0 ,99,0 ,23.6,0 ,71,0 ,23.9,0 ,22.6,0
2003/7/4 8:45,18.5,0 ,99,0 ,24.6,0 ,72,0 ,23.9,0 ,22.7,0
2003/7/4 9:00,18.6,0 ,99,0 ,23.5,0 ,72,0 ,23.9,0 ,22.7,0
2003/7/4 9:15,18.7,0 ,98,0 ,24.5,0 ,72,0 ,23.9,0 ,22.7,0
2003/7/4 9:30,18.9,0 ,97,0 ,23.5,0 ,72,0 ,23.9,0 ,22.8,0
2003/7/4 9:45,19.1,0 ,94,0 ,24.5,0 ,72,0 ,23.9,0 ,22.8,0
2003/7/4 10:00,19.4,0 ,90,0 ,23.6,0 ,71,0 ,23.9,0 ,22.8,0
2003/7/4 10:15,19.7,0 ,88,0 ,24.5,0 ,72,0 ,23.9,0 ,22.8,0
2003/7/4 10:30,20.2,0 ,85,0 ,23.5,0 ,71,0 ,23.9,0 ,22.9,0
2003/7/4 10:45,20.8,0 ,82,0 ,24.5,0 ,72,0 ,23.9,0 ,22.9,0
2003/7/4 11:00,21.2,0 ,79,0 ,23.5,0 ,71,0 ,23.9,0 ,22.9,0
2003/7/4 11:15,21.5,0 ,78,0 ,24.6,0 ,72,0 ,23.9,0 ,23,0
2003/7/4 11:30,21.9,0 ,77,0 ,23.6,0 ,72,0 ,23.9,0 ,23,0
2003/7/4 11:45,22.2,0 ,77,0 ,24.6,0 ,73,0 ,24,0 ,23,0
2003/7/4 12:00,22.2,0 ,76,0 ,23.7,0 ,72,0 ,24,0 ,23,0
2003/7/4 12:15,22.3,0 ,77,0 ,24.7,0 ,73,0 ,24,0 ,23.1,0
2003/7/4 12:30,22,0 ,78,0 ,23.6,0 ,72,0 ,24,0 ,23.1,0
2003/7/4 12:45,21.9,0 ,81,0 ,24.7,0 ,73,0 ,24,0 ,23.1,0
2003/7/4 13:00,21.4,0 ,84,0 ,23.6,0 ,72,0 ,24,0 ,23.2,0
2003/7/4 13:15,21.1,0 ,83,0 ,24.6,0 ,72,0 ,24,0 ,23.2,0
2003/7/4 13:30,21.3,0 ,81,0 ,23.6,0 ,71,0 ,24,0 ,23.2,0
2003/7/4 13:45,21.4,0 ,82,0 ,24.6,0 ,72,0 ,24,0 ,23.2,0
2003/7/4 14:00,21.3,0 ,82,0 ,23.5,0 ,71,0 ,24,0 ,23.3,0
2003/7/4 14:15,21.1,0 ,82,0 ,24.6,0 ,71,0 ,24,0 ,23.3,0
2003/7/4 14:30,21,0 ,82,0 ,23.6,0 ,70,0 ,23.9,0 ,23.3,0
2003/7/4 14:45,21.1,0 ,82,0 ,24.6,0 ,71,0 ,23.9,0 ,23.4,0
2003/7/4 15:00,21.2,0 ,82,0 ,23.5,0 ,70,0 ,23.9,0 ,23.4,0
2003/7/4 15:15,21.3,0 ,84,0 ,24.5,0 ,71,0 ,23.9,0 ,23.4,0
2003/7/4 15:30,21.2,0 ,85,0 ,23.5,0 ,70,0 ,23.9,0 ,23.4,0
2003/7/4 15:45,21.2,0 ,85,0 ,24.5,0 ,71,0 ,23.9,0 ,23.4,0
2003/7/4 16:00,21.2,0 ,84,0 ,23.6,0 ,70,0 ,23.9,0 ,23.5,0
2003/7/4 16:15,21.1,0 ,85,0 ,24.5,0 ,71,0 ,23.9,0 ,23.5,0
2003/7/4 16:30,21.1,0 ,85,0 ,23.5,0 ,70,0 ,23.9,0 ,23.5,0
2003/7/4 16:45,20.9,0 ,85,0 ,24.5,0 ,70,0 ,23.9,0 ,23.5,0
2003/7/4 17:00,20.8,0 ,84,0 ,23.5,0 ,70,0 ,23.9,0 ,23.6,0
2003/7/4 17:15,20.8,0 ,84,0 ,24.5,0 ,70,0 ,23.9,0 ,23.6,0
2003/7/4 17:30,20.9,0 ,84,0 ,23.5,0 ,69,0 ,23.9,0 ,23.6,0
2003/7/4 17:45,20.8,0 ,86,0 ,24.5,0 ,70,0 ,23.9,0 ,23.6,0
2003/7/4 18:00,20.7,0 ,87,0 ,23.5,0 ,69,0 ,23.8,0 ,23.6,0
2003/7/4 18:15,20.6,0 ,86,0 ,24.5,0 ,70,0 ,23.8,0 ,23.7,0
2003/7/4 18:30,20.7,0 ,85,0 ,23.5,0 ,69,0 ,23.8,0 ,23.7,0
2003/7/4 18:45,20.7,0 ,86,0 ,24.5,0 ,70,0 ,23.8,0 ,23.7,0
2003/7/4 19:00,20.6,0 ,86,0 ,23.5,0 ,69,0 ,23.8,0 ,23.7,0
2003/7/4 19:15,20.6,0 ,86,0 ,24.5,0 ,69,0 ,23.8,0 ,23.7,0
2003/7/4 19:30,20.5,0 ,86,0 ,23.5,0 ,70,0 ,23.8,0 ,23.8,0
2003/7/4 19:45,20.5,0 ,87,0 ,24.6,0 ,74,0 ,24,0 ,22.8,0
2003/7/4 20:00,20.4,0 ,88,0 ,23.6,0 ,72,0 ,24,0 ,22.8,0
2003/7/4 20:15,20.3,0 ,89,0 ,24.6,0 ,72,0 ,24,0 ,22.9,0
2003/7/4 20:30,20.3,0 ,89,0 ,23.5,0 ,72,0 ,24,0 ,22.9,0
2003/7/4 20:45,20.2,0 ,91,0 ,24.6,0 ,72,0 ,24.1,0 ,22.9,0
2003/7/4 21:00,20,0 ,92,0 ,23.6,0 ,71,0 ,24.1,0 ,22.9,0
2003/7/4 21:15,19.9,0 ,92,0 ,24.7,0 ,72,0 ,24.2,0 ,23,0
2003/7/4 21:30,19.9,0 ,91,0 ,23.7,0 ,72,0 ,24.3,0 ,23,0
2003/7/4 21:45,19.8,0 ,91,0 ,24.8,0 ,74,0 ,24.4,0 ,23,0
2003/7/4 22:00,19.5,0 ,91,0 ,24.4,0 ,73,0 ,24.5,0 ,22.7,0
2003/7/4 22:15,19.3,0 ,92,0 ,24.9,0 ,74,0 ,24.5,0 ,22.3,0
2003/7/4 22:30,19.2,0 ,92,0 ,24.4,0 ,73,0 ,24.5,0 ,22.3,0
2003/7/4 22:45,19.2,0 ,92,0 ,24.9,0 ,75,0 ,24.5,0 ,22.4,0
2003/7/4 23:00,19.2,0 ,91,0 ,24.4,0 ,74,0 ,24.5,0 ,22.4,0
2003/7/4 23:15,19.3,0 ,90,0 ,25,0 ,74,0 ,24.5,0 ,22.4,0
2003/7/4 23:30,19.4,0 ,89,0 ,24.5,0 ,73,0 ,24.5,0 ,22.5,0
2003/7/4 23:45,19.5,0 ,89,0 ,25,0 ,74,0 ,24.5,0 ,22.5,0
2003/7/5 0:00,19.5,0 ,89,0 ,24.5,0 ,73,0 ,24.5,0 ,22.6,0
2003/7/5 0:15,19.4,0 ,83,0 ,25,0 ,74,0 ,24.5,0 ,22.6,0
2003/7/5 0:30,19.7,0 ,77,0 ,24.5,0 ,73,0 ,24.5,0 ,22.6,0
2003/7/5 0:45,19.8,0 ,72,0 ,25,0 ,73,0 ,24.5,0 ,22.7,0
2003/7/5 1:00,19.9,0 ,66,0 ,24.5,0 ,72,0 ,24.5,0 ,22.7,0
2003/7/5 1:15,20,0 ,65,0 ,25,0 ,72,0 ,24.5,0 ,22.8,0
2003/7/5 1:30,20.1,0 ,63,0 ,24.5,0 ,71,0 ,24.5,0 ,22.8,0
2003/7/5 1:45,20.1,0 ,64,0 ,25,0 ,72,0 ,24.4,0 ,22.8,0
2003/7/5 2:00,20,0 ,65,0 ,24.5,0 ,70,0 ,24.4,0 ,22.9,0
2003/7/5 2:15,19.9,0 ,64,0 ,24.9,0 ,71,0 ,24.4,0 ,22.9,0
2003/7/5 2:30,19.9,0 ,63,0 ,24.5,0 ,71,0 ,24.4,0 ,22.9,0
2003/7/5 2:45,19.8,0 ,63,0 ,25,0 ,73,0 ,24.4,0 ,23,0
2003/7/5 3:00,19.8,0 ,62,0 ,24.5,0 ,71,0 ,24.4,0 ,23,0
2003/7/5 3:15,19.8,0 ,61,0 ,24.9,0 ,72,0 ,24.4,0 ,23,0
2003/7/5 3:30,19.8,0 ,60,0 ,24.4,0 ,71,0 ,24.3,0 ,23.1,0
2003/7/5 3:45,19.9,0 ,60,0 ,24.9,0 ,71,0 ,24.3,0 ,23.1,0
2003/7/5 4:00,19.9,0 ,59,0 ,24.4,0 ,70,0 ,24.3,0 ,23.2,0
2003/7/5 4:15,20,0 ,61,0 ,24.9,0 ,70,0 ,24.3,0 ,23.2,0
2003/7/5 4:30,19.9,0 ,62,0 ,24.4,0 ,70,0 ,24.3,0 ,22.8,0
2003/7/5 4:45,19.8,0 ,62,0 ,24.9,0 ,71,0 ,24.2,0 ,22.8,0
2003/7/5 5:00,19.8,0 ,61,0 ,24.4,0 ,70,0 ,24.2,0 ,22.8,0
2003/7/5 5:15,19.8,0 ,59,0 ,25,0 ,71,0 ,24.2,0 ,22.9,0
2003/7/5 5:30,20,0 ,57,0 ,24.5,0 ,71,0 ,24.2,0 ,22.9,0
2003/7/5 5:45,20.6,0 ,54,0 ,25.1,0 ,71,0 ,24.3,0 ,22.8,0
2003/7/5 6:00,21.6,0 ,50,0 ,24.6,0 ,70,0 ,24.3,0 ,22.8,0
2003/7/5 6:15,22.1,0 ,49,0 ,25.2,0 ,70,0 ,24.5,0 ,22.7,0
2003/7/5 6:30,22.5,0 ,48,0 ,24.8,0 ,66,0 ,24.5,0 ,22.7,0
2003/7/5 6:45,23.2,0 ,48,0 ,25.3,0 ,64,0 ,24.6,0 ,22.8,0
2003/7/5 7:00,23.4,0 ,47,0 ,24.8,0 ,63,0 ,24.6,0 ,22.8,0
2003/7/5 7:15,23.9,0 ,47,0 ,25.2,0 ,56,0 ,24.6,0 ,22.8,0